Location: Newark
(29.9790°N, 31.1340°E)
Time: 01:44:45
(UTC+00:00)

Transit 2A - Visible Passes

Search period start: 23 January 2020 00:00
Search period end: 02 February 2020 00:00
Orbit: 601 x 958 km, 66.7° (Epoch: 22 January)

Date Brightness Start Highest point End Pass type
(mag) Time Alt. Az. Time Alt. Az. Time Alt. Az.
23 Jan 8.3 02:41:19 10° NNE 02:44:48 19° ENE 02:48:29 10° ESE visible
23 Jan 6.8 17:15:14 10° S 17:17:48 30° SSE 17:17:48 30° SSE visible
24 Jan 8.6 02:08:32 10° NNE 02:10:31 12° NE 02:12:32 10° ENE visible
24 Jan 6.0 03:48:56 10° NNW 03:53:55 69° WSW 03:59:26 10° SSE visible
24 Jan 6.5 16:41:41 10° S 16:45:33 28° ESE 16:45:33 28° ESE visible
24 Jan 8.6 18:25:26 10° WSW 18:26:07 13° W 18:26:07 13° W visible
25 Jan 6.1 03:16:15 20° NNW 03:19:49 77° ENE 03:25:21 10° SSE visible
25 Jan 7.2 16:08:38 10° SSE 16:11:35 17° ESE 16:13:18 14° E visible
25 Jan 7.3 17:50:27 10° WSW 17:53:52 29° WNW 17:53:52 29° WNW visible
26 Jan 6.8 02:43:46 33° N 02:45:41 48° ENE 02:51:00 10° SE visible
26 Jan 6.3 17:15:53 10° SW 17:20:17 51° WNW 17:21:35 37° NNW visible
27 Jan 7.5 02:11:23 31° ENE 02:11:32 31° ENE 02:16:21 10° ESE visible
27 Jan 7.1 03:51:56 17° WNW 03:54:32 25° WSW 03:59:01 10° SSW visible
27 Jan 5.5 16:41:37 10° SSW 16:46:10 87° WNW 16:49:16 19° NNE visible
28 Jan 8.5 01:39:05 18° E 01:39:05 18° E 01:41:19 10° ESE visible
28 Jan 6.5 03:19:38 37° W 03:20:29 39° WSW 03:25:40 10° S visible
28 Jan 5.7 16:07:39 10° S 16:12:05 54° ESE 16:16:20 10° NE visible
28 Jan 8.5 17:54:24 10° WNW 17:55:26 11° NW 17:56:29 10° NW visible
29 Jan 6.3 02:47:24 52° SSW 02:47:24 52° SSW 02:51:57 10° SSE visible
29 Jan 8.1 17:18:10 10° W 17:21:08 17° WNW 17:24:03 10° NNW visible
30 Jan 7.6 02:15:13 29° SSE 02:15:13 29° SSE 02:17:56 10° SSE visible
30 Jan 7.5 16:43:05 10° WSW 16:46:54 27° WNW 16:50:38 10° N visible
31 Jan 8.7 01:43:04 13° SE 01:43:04 13° SE 01:43:39 10° SE visible
31 Jan 8.2 03:23:37 11° SW 03:23:37 11° SW 03:24:00 10° SW visible
31 Jan 6.6 16:08:26 10° SW 16:12:44 45° WNW 16:16:54 10° N visible
